Address 0x83d1c7013969a3704e40446a6475a6a07239334f 2

 
Txn Hash Method
Block
From
To
Value [Txn Fee]
0xad8cd1a8ee77d335540dd5229f25fbbf4e2adfcb62d6511114dfec2fd025d9d3Deposit112970032021-09-28 3:23:534 hrs ago0x83d1c7013969a3704e40446a6475a6a07239334fOUT 0xb7746f9eac21285abef7d4e2c92ed415927b52850 BNB0.00235952
0xd7443bcf220b38234466f47f6883308ff75cf573a3b12bc448c5659533fcd0770xb909c3cf112969622021-09-28 3:21:274 hrs 2 mins ago0x83d1c7013969a3704e40446a6475a6a07239334fOUT 0xb7746f9eac21285abef7d4e2c92ed415927b52850 BNB0.00364921
0x78e3b586bd30a51600ad535bcda2c73d0f27d47451da6fb656b90d15e88b6456Deposit112966552021-09-28 3:05:274 hrs 18 mins ago0x83d1c7013969a3704e40446a6475a6a07239334fOUT 0xb7746f9eac21285abef7d4e2c92ed415927b52850 BNB0.00263906
0x585baf74d49091eb5e7567208222a5042cee817ed9839624faaf2ce29a42001cSwap Exact Token...112966402021-09-28 3:04:424 hrs 19 mins ago0x83d1c7013969a3704e40446a6475a6a07239334fOUT PancakeSwap: Router v20 BNB0.00091653
0xf2337ca5252a7b0424ee49ed68e41fba9dbd0ced9248368eacd59e9d5034444aSwap Exact Token...112966272021-09-28 3:04:034 hrs 20 mins ago0x83d1c7013969a3704e40446a6475a6a07239334fOUT PancakeSwap: Router v20 BNB0.000536065
0xf543a33485ce23b2c95da34b230acfcf7471246fe68f58b1909233f4246c9b7fRemove Liquidity...112966032021-09-28 3:02:514 hrs 21 mins ago0x83d1c7013969a3704e40446a6475a6a07239334fOUT PancakeSwap: Router v20 BNB0.0009466
0xf82bac707a1b77e9a1222ae5bf61704a29912f785c4775133f54c880fefe87feSwap Exact Token...112965102021-09-28 2:58:124 hrs 25 mins ago0x83d1c7013969a3704e40446a6475a6a07239334fOUT PancakeSwap: Router v20 BNB0.000536065
0x9f09fa8a6ae5bc6a4fe6013d323455200cecae601fd9a02850826c6e7ef0472bDeposit112963982021-09-28 2:52:354 hrs 31 mins ago0x83d1c7013969a3704e40446a6475a6a07239334fOUT 0xb7746f9eac21285abef7d4e2c92ed415927b52850 BNB0.00250964
0xdf863517a31efb6ad12f0e535cd58d231f7efeae32c3559667d871af5d48855eAdd Liquidity112963742021-09-28 2:51:234 hrs 32 mins ago0x83d1c7013969a3704e40446a6475a6a07239334fOUT PancakeSwap: Router v20 BNB0.00101545
0x3d25a5d691aa047ec79971951f5d6bd779120d3c9f748a2ff571df0d280b7b31Swap Exact Token...112962952021-09-28 2:47:264 hrs 36 mins ago0x83d1c7013969a3704e40446a6475a6a07239334fOUT PancakeSwap: Router v20 BNB0.0006261
0x4e72854cd70e8ffea6b99626ae3fb09bb724b51e919987bb09cfdd8cfe17f349Deposit112962722021-09-28 2:46:174 hrs 37 mins ago0x83d1c7013969a3704e40446a6475a6a07239334fOUT 0xb7746f9eac21285abef7d4e2c92ed415927b52850 BNB0.00285573
0x52fbde2b87c95af0232d7fd4e37f0c1b5997b2c18da5173d9128cacb3254352fAdd Liquidity112960832021-09-28 2:36:504 hrs 47 mins ago0x83d1c7013969a3704e40446a6475a6a07239334fOUT PancakeSwap: Router v20 BNB0.00101526
0xd496d77ad437f2ab8529833e7172e2637412e9710f55dbd9bd7b175de0f9791fSwap Tokens For ...112960302021-09-28 2:34:114 hrs 49 mins ago0x83d1c7013969a3704e40446a6475a6a07239334fOUT PancakeSwap: Router v20 BNB0.00070114
0x0e4ed229e30adf395ec8a9b5b624ff13814ceeafefe6eb338360400d7d93301dTransfer112091642021-09-25 1:34:063 days 5 hrs ago0x83d1c7013969a3704e40446a6475a6a07239334fOUT BUSD-T Stablecoin0 BNB0.000180695
0xce5522248f75b63f3b959589785c48b2a658de5aac131ee8e587a70c89757211Transfer112091432021-09-25 1:33:033 days 5 hrs ago0x83d1c7013969a3704e40446a6475a6a07239334fOUT Binance: BUSD Stablecoin0 BNB0.000105695
0xbfaa573f5e01aea6274ed720d0fb3b6c0427deca52bc53f7deab653908324e42Swap Exact Token...112090802021-09-25 1:29:543 days 5 hrs ago0x83d1c7013969a3704e40446a6475a6a07239334fOUT PancakeSwap: Router v20 BNB0.00055037
0xe2b16f801956c4b6b736019b863e6cd809d40291557d142e7f59b5d7855a7a05Remove Liquidity...112090382021-09-25 1:27:483 days 5 hrs ago0x83d1c7013969a3704e40446a6475a6a07239334fOUT PancakeSwap: Router v20 BNB0.001003425
0xb21e0d4e231a27353ab532b369a19a98287e0ece6a2131df58c6f6744bfb4d480xb909c3cf112089632021-09-25 1:24:033 days 6 hrs ago0x83d1c7013969a3704e40446a6475a6a07239334fOUT 0xb7746f9eac21285abef7d4e2c92ed415927b52850 BNB0.00305226
0x965db9c4dee15ea0d578b3ecfa0fa05bf17e602100720f8455318895be135daaSwap Exact Token...111850972021-09-24 5:26:174 days 1 hr ago0x83d1c7013969a3704e40446a6475a6a07239334fOUT PancakeSwap: Router v20 BNB0.00055346
0xcfd41a5349ece86b519407ed6d3928d1c396d9d8a540235c3ce93df156759d4cClaim Rewards111850522021-09-24 5:24:024 days 2 hrs ago0x83d1c7013969a3704e40446a6475a6a07239334fOUT 0xb7746f9eac21285abef7d4e2c92ed415927b52850 BNB0.00074864
0x0c368851e5d5524e02fe01bb4d6187f3a7278e44bc4d683ff04e88208d605aaaSwap Exact Token...111210722021-09-21 23:43:406 days 7 hrs ago0x83d1c7013969a3704e40446a6475a6a07239334fOUT PancakeSwap: Router v20 BNB0.000910325
0xe3967badef0826cda462c7b107ab18215d6c5e6c1371784d8faa37269e80a5f2Swap Exact Token...110891122021-09-20 20:56:197 days 10 hrs ago0x83d1c7013969a3704e40446a6475a6a07239334fOUT PancakeSwap: Router v20 BNB0.00098218
0xc4819d1cc91cfea38c1baf235edfc4e0d4ca5b292404d8841ae097416590ee180xb909c3cf110890782021-09-20 20:54:377 days 10 hrs ago0x83d1c7013969a3704e40446a6475a6a07239334fOUT 0xb7746f9eac21285abef7d4e2c92ed415927b52850 BNB0.00320144
0x46e3ab2b54d7bec7b4db7a341ba444f309cd5de7e3eb20c377615e10641cc3feClaim Rewards110876352021-09-20 19:42:277 days 11 hrs ago0x83d1c7013969a3704e40446a6475a6a07239334fOUT 0xb7746f9eac21285abef7d4e2c92ed415927b52850 BNB0.00074864
0x48ef076d9ba1aef27d2c44dc21c6e5e1861de3502d3f0b7a916f0f3c6c7d4e8eSwap Exact Token...109777732021-09-16 23:46:2711 days 7 hrs ago0x83d1c7013969a3704e40446a6475a6a07239334fOUT PancakeSwap: Router v20 BNB0.00055346
[ Download CSV Export 
Latest 8 internal transactions
Parent Txn Hash Block From To Value
0xd100c222a7f1c3ce4bdab879af77968d84cf567533b59030d2788480d7f8657e108697912021-09-13 5:31:1215 days 1 hr ago PancakeSwap: Router v20x83d1c7013969a3704e40446a6475a6a07239334f0.000493306508520973 BNB
0x3cddf674f36d4ad0102640cac9473b22893c27fca0a130a978003ea05924ae93108689402021-09-13 4:48:3815 days 2 hrs ago PancakeSwap: Router v20x83d1c7013969a3704e40446a6475a6a07239334f0.754587808605740437 BNB
0xda7397314b5dd2396f44926509eadc522513cabffdf4c501d8b61b8028d0da87107985602021-09-10 17:48:2317 days 13 hrs ago PancakeSwap: Router v20x83d1c7013969a3704e40446a6475a6a07239334f0.803295376161030979 BNB
0x5f1e68f3628612ea84a57a9fd36a8d5d15a8fe7b7e84da9f62ff6c9d2d975ef1103895232021-08-27 8:23:5431 days 23 hrs ago PancakeSwap: Router v20x83d1c7013969a3704e40446a6475a6a07239334f0.000000025758484894 BNB
0x07c86d4ee39f304efdab951af5c5ec833581c2249b3c6c39a839ad0c6b989a06103892292021-08-27 8:09:1231 days 23 hrs ago PancakeSwap: Router v20x83d1c7013969a3704e40446a6475a6a07239334f0.995007258308568293 BNB
0x54cc6ca101dab60b7dff387a6886363726019118f1095ca120e260f69c29b6a899560572021-08-12 4:50:4747 days 2 hrs ago Binance: WBNB Token0x83d1c7013969a3704e40446a6475a6a07239334f0.016707 BNB
0x6c53652d844956409f33c792eb22d75dc4993ab60dc69b6b13b8a883fd71cd7f99558312021-08-12 4:38:5047 days 2 hrs ago 0xf84e3809971798bd372aecdc03ae977759a619ab0x83d1c7013969a3704e40446a6475a6a07239334f0.005038197181674321 BNB
0x265f36f94cef8fbcd32c00d842e48ae8c970b29ab63ff7abe7dbfac661bc489974541122021-05-16 8:03:31134 days 23 hrs ago Binance: WBNB Token0x83d1c7013969a3704e40446a6475a6a07239334f0.01653574600972752 BNB
[ Download CSV Export 
Loading

Contract Name:
0 BNB

Compiler Version
0

Optimization Enabled:
0 BNB

Other Settings:
-NA-
Block Transaction Gas Used Reward
Age Block Fee Address BC Fee Address Voting Power Jailed Incoming
Block Uncle Number Difficulty Gas Used Reward
Loading
Loading
Make sure to use the "Vote Down" button for any spammy posts, and the "Vote Up" for interesting conversations.